• In India
  • List of Countries
  • For 7 days
  • Water Temperature
  • Satellite Maps
  • Weather Map
  • Weather Widgets
  • user-avatar
    Login

    Hourly Weather Vista Hermosa

    Today, 24 February, Saturday

    Time Temperature Precipitation Wind Pressure Humidity
    00:00 +26°C° 2.1 mm 2 mps 738 mmHg 81%
    01:00 +25°C° 2.1 mm 2 mps 738 mmHg 83%
    02:00 +25°C° 1.7 mm 2 mps 737 mmHg 83%
    03:00 +25°C° 1.7 mm 2 mps 737 mmHg 83%
    04:00 +25°C° 1.7 mm 2 mps 737 mmHg 83%
    05:00 +26°C° 1.1 mm 2 mps 737 mmHg 80%
    06:00 +26°C° 1.1 mm 2 mps 738 mmHg 78%
    07:00 +26°C° 1.1 mm 2 mps 738 mmHg 75%
    08:00 +28°C° 0.9 mm 2 mps 738 mmHg 69%
    09:00 +30°C° 0.9 mm 2 mps 739 mmHg 63%
    10:00 +32°C° 0.9 mm 2 mps 739 mmHg 57%
    11:00 +32°C° 0.7 mm 2 mps 738 mmHg 55%
    12:00 +34°C° 0.7 mm 2 mps 738 mmHg 54%
    13:00 +35°C° 0.7 mm 2 mps 737 mmHg 52%
    14:00 +35°C° 0.7 mm 2 mps 736 mmHg 52%
    15:00 +34°C° 0.7 mm 2 mps 736 mmHg 53%
    16:00 +33°C° 0.7 mm 1 mps 735 mmHg 53%
    17:00 +32°C° 0.8 mm 1 mps 735 mmHg 57%
    18:00 +30°C° 0.8 mm 1 mps 735 mmHg 62%
    19:00 +28°C° 0.8 mm 1 mps 736 mmHg 66%
    20:00 +28°C° 1.1 mm 1 mps 737 mmHg 67%
    21:00 +28°C° 1.1 mm 1 mps 737 mmHg 68%
    22:00 +27°C° 1.1 mm 1 mps 738 mmHg 69%
    23:00 +27°C° 1 mm 1 mps 738 mmHg 70%

    Tomorrow, 25 February, Sunday

    Time Temperature Precipitation Wind Pressure Humidity
    00:00 +27°C° 1 mm 1 mps 737 mmHg 71%
    01:00 +26°C° 1 mm 1 mps 737 mmHg 71%
    02:00 +26°C° 0.8 mm 1 mps 737 mmHg 71%
    03:00 +26°C° 0.8 mm 1 mps 737 mmHg 72%
    04:00 +26°C° 0.8 mm 1 mps 737 mmHg 72%
    05:00 +26°C° 1.3 mm 1 mps 737 mmHg 71%
    06:00 +26°C° 1.3 mm 1 mps 738 mmHg 71%
    07:00 +27°C° 1.3 mm 2 mps 738 mmHg 71%
    08:00 +28°C° 1.7 mm 2 mps 739 mmHg 66%
    09:00 +30°C° 1.7 mm 2 mps 739 mmHg 61%
    10:00 +32°C° 1.7 mm 2 mps 740 mmHg 56%
    11:00 +32°C° 0.8 mm 2 mps 739 mmHg 54%
    12:00 +34°C° 0.8 mm 2 mps 738 mmHg 53%
    13:00 +34°C° 0.8 mm 2 mps 737 mmHg 51%
    14:00 +35°C° 0.3 mm 2 mps 736 mmHg 51%
    15:00 +35°C° 0.3 mm 2 mps 735 mmHg 51%
    16:00 +35°C° 0.3 mm 2 mps 734 mmHg 50%
    17:00 +32°C° 1.2 mm 2 mps 735 mmHg 56%
    18:00 +31°C° 1.2 mm 1 mps 735 mmHg 61%
    19:00 +29°C° 1.2 mm 1 mps 736 mmHg 66%
    20:00 +28°C° 1.8 mm 1 mps 737 mmHg 68%
    21:00 +28°C° 1.8 mm 1 mps 737 mmHg 69%
    22:00 +27°C° 1.8 mm 1 mps 738 mmHg 71%
    23:00 +27°C° 2 mm 1 mps 738 mmHg 72%

    Day after tomorrow, 26 February, Monday

    Time Temperature Precipitation Wind Pressure Humidity
    00:00 +27°C° 2 mm 1 mps 738 mmHg 72%
    01:00 +27°C° 2 mm 1 mps 737 mmHg 73%
    02:00 +26°C° 2 mm 1 mps 737 mmHg 74%
    03:00 +26°C° 2 mm 1 mps 737 mmHg 76%
    04:00 +26°C° 2 mm 1 mps 737 mmHg 78%
    05:00 +26°C° 2.2 mm 1 mps 738 mmHg 79%
    06:00 +26°C° 2.2 mm 1 mps 738 mmHg 80%
    07:00 +26°C° 2.2 mm 1 mps 739 mmHg 81%
    08:00 +27°C° 2.6 mm 1 mps 739 mmHg 75%
    09:00 +29°C° 2.6 mm 1 mps 740 mmHg 69%
    10:00 +30°C° 2.6 mm 1 mps 740 mmHg 63%
    11:00 +31°C° 1.2 mm 2 mps 739 mmHg 61%
    12:00 +32°C° 1.2 mm 2 mps 738 mmHg 59%
    13:00 +34°C° 1.2 mm 2 mps 737 mmHg 56%
    14:00 +33°C° 0.6 mm 1 mps 736 mmHg 56%
    15:00 +34°C° 0.6 mm 1 mps 735 mmHg 55%
    16:00 +34°C° 0.6 mm 1 mps 735 mmHg 54%
    17:00 +32°C° 1.3 mm 1 mps 735 mmHg 59%
    18:00 +30°C° 1.3 mm 1 mps 735 mmHg 64%
    19:00 +29°C° 1.3 mm 1 mps 736 mmHg 69%
    20:00 +28°C° 1.4 mm 1 mps 736 mmHg 71%
    21:00 +28°C° 1.4 mm 1 mps 737 mmHg 72%
    22:00 +27°C° 1.4 mm 1 mps 738 mmHg 74%
    23:00 +27°C° 1.5 mm 1 mps 737 mmHg 75%

    27 February, Tuesday

    Time Temperature Precipitation Wind Pressure Humidity
    00:00 +26°C° 1.5 mm 1 mps 737 mmHg 77%
    01:00 +26°C° 1.5 mm 1 mps 737 mmHg 79%
    02:00 +26°C° 1.5 mm 1 mps 736 mmHg 80%
    03:00 +25°C° 1.5 mm 1 mps 736 mmHg 81%
    04:00 +25°C° 1.5 mm 1 mps 736 mmHg 83%
    05:00 +26°C° 1.4 mm 1 mps 737 mmHg 82%
    06:00 +26°C° 1.4 mm 1 mps 738 mmHg 81%
    07:00 +26°C° 1.4 mm 1 mps 738 mmHg 80%
    08:00 +28°C° 1.5 mm 1 mps 738 mmHg 75%
    09:00 +29°C° 1.5 mm 2 mps 739 mmHg 69%
    10:00 +31°C° 1.5 mm 2 mps 739 mmHg 64%
    11:00 +31°C° 0.7 mm 2 mps 738 mmHg 62%
    12:00 +32°C° 0.7 mm 2 mps 737 mmHg 60%
    13:00 +34°C° 0.7 mm 2 mps 736 mmHg 58%
    14:00 +33°C° 0.5 mm 1 mps 735 mmHg 57%
    15:00 +33°C° 0.5 mm 1 mps 734 mmHg 57%
    16:00 +33°C° 0.5 mm 1 mps 734 mmHg 57%
    17:00 +32°C° 1 mm 1 mps 734 mmHg 62%
    18:00 +30°C° 1 mm 1 mps 735 mmHg 66%
    19:00 +29°C° 1 mm 1 mps 735 mmHg 70%
    20:00 +28°C° 1 mm 1 mps 736 mmHg 71%
    21:00 +27°C° 1 mm 1 mps 736 mmHg 72%
    22:00 +27°C° 1 mm 1 mps 737 mmHg 73%
    23:00 +27°C° 1.1 mm 1 mps 736 mmHg 74%

    28 February, Wednesday

    Time Temperature Precipitation Wind Pressure Humidity
    00:00 +26°C° 1.1 mm 1 mps 736 mmHg 75%
    01:00 +26°C° 1.1 mm 1 mps 736 mmHg 75%
    02:00 +26°C° 1.5 mm 1 mps 736 mmHg 77%
    03:00 +26°C° 1.5 mm 1 mps 735 mmHg 79%
    04:00 +25°C° 1.5 mm 1 mps 735 mmHg 82%
    05:00 +26°C° 1.1 mm 1 mps 736 mmHg 80%
    06:00 +26°C° 1.1 mm 1 mps 737 mmHg 79%
    07:00 +27°C° 1.1 mm 1 mps 737 mmHg 77%
    08:00 +28°C° 1.1 mm 1 mps 737 mmHg 72%
    09:00 +30°C° 1.1 mm 2 mps 738 mmHg 67%
    10:00 +31°C° 1.1 mm 2 mps 738 mmHg 62%
    11:00 +31°C° 0.5 mm 2 mps 737 mmHg 61%
    12:00 +32°C° 0.5 mm 2 mps 736 mmHg 61%
    13:00 +32°C° 0.5 mm 2 mps 735 mmHg 60%
    14:00 +34°C° 0.1 mm 2 mps 735 mmHg 58%
    15:00 +34°C° 0.1 mm 2 mps 734 mmHg 56%
    16:00 +34°C° 0.1 mm 1 mps 733 mmHg 54%
    17:00 +32°C° 0.8 mm 1 mps 734 mmHg 59%
    18:00 +30°C° 0.8 mm 1 mps 734 mmHg 65%
    19:00 +29°C° 0.8 mm 1 mps 735 mmHg 70%
    20:00 +28°C° 0.9 mm 1 mps 735 mmHg 71%
    21:00 +28°C° 0.9 mm 1 mps 736 mmHg 71%
    22:00 +28°C° 0.9 mm 1 mps 737 mmHg 72%
    23:00 +27°C° 0.9 mm 1 mps 736 mmHg 72%

    1 March, Thursday

    Time Temperature Precipitation Wind Pressure Humidity
    00:00 +27°C° 0.9 mm 1 mps 736 mmHg 71%
    01:00 +27°C° 0.9 mm 1 mps 736 mmHg 71%
    02:00 +27°C° 0.8 mm 1 mps 736 mmHg 70%
    03:00 +27°C° 0.8 mm 2 mps 736 mmHg 69%
    04:00 +27°C° 0.8 mm 2 mps 736 mmHg 69%
    05:00 +27°C° 0.8 mm 2 mps 736 mmHg 68%
    06:00 +27°C° 0.8 mm 2 mps 737 mmHg 68%
    07:00 +28°C° 0.8 mm 2 mps 737 mmHg 68%
    08:00 +29°C° 0.9 mm 2 mps 738 mmHg 64%
    09:00 +31°C° 0.9 mm 2 mps 738 mmHg 59%
    10:00 +32°C° 0.9 mm 2 mps 739 mmHg 55%
    11:00 +32°C° 0.6 mm 2 mps 738 mmHg 54%
    12:00 +34°C° 0.6 mm 2 mps 737 mmHg 54%
    13:00 +34°C° 0.6 mm 2 mps 736 mmHg 53%
    14:00 +35°C° 0.2 mm 2 mps 735 mmHg 52%
    15:00 +35°C° 0.2 mm 2 mps 735 mmHg 51%
    16:00 +36°C° 0.2 mm 2 mps 734 mmHg 50%
    17:00 +34°C° 0.4 mm 2 mps 734 mmHg 54%
    18:00 +31°C° 0.4 mm 1 mps 735 mmHg 59%
    19:00 +29°C° 0.4 mm 1 mps 735 mmHg 63%
    20:00 +28°C° 0.5 mm 1 mps 736 mmHg 64%
    21:00 +28°C° 0.5 mm 1 mps 736 mmHg 65%
    22:00 +28°C° 0.5 mm 1 mps 737 mmHg 65%
    23:00 +28°C° 0.7 mm 1 mps 737 mmHg 65%
    Show more